Temperature
16 16 16 17 17 17 17 17 17 17 17 17 17 17 17 17 17 17 17 17 17 17 17 16 16 16 16 16 15 15 15 15 15 15 15 15 15 15 15 15 15 15 15
16 16 16 16 17 17 17 17 17 17 17 17 17 17 17 17 17 17 17 17 17 17 16 16 16 16 16 16 15 15 15 15 15 15 15 15 15 15 15 15 15 15 15
16 16 16 16 16 16 17 17 17 17 17 17 17 17 17 17 17 17 17 17 16 16 16 16 16 16 16 16 15 15 15 15 15 15 15 14 14 14 14 14 14 15 15
16 16 16 16 16 16 16 16 16 17 17 17 17 17 17 17 17 17 16 16 16 16 16 16 16 16 16 15 15 15 15 15 15 15 14 14 14 14 14 14 14 14 14
16 16 16 16 16 16 16 16 16 16 16 16 16 16 16 16 16 16 16 16 16 16 15 16 16 16 15 15 15 15 15 15 15 15 14 14 14 14 14 14 14 14 14
15 15 16 16 16 16 16 16 16 16 16 16 16 16 16 16 16 16 16 16 16 16 16 15 16 16 16 15 15 15 15 14 14 14 14 14 14 14 14 14 14 14 14
15 15 15 15 16 16 16 16 16 16 16 16 16 16 16 16 16 16 16 16 16 16 16 15 15 16 16 15 15 15 15 14 14 14 14 14 14 14 14 14 14 14 14
15 15 15 15 15 15 15 16 16 16 16 16 16 16 16 16 16 16 16 16 16 15 15 15 15 15 15 15 15 15 15 15 14 14 14 14 14 13 14 14 14 14 14
15 15 15 15 15 15 15 15 15 16 16 16 16 16 16 16 16 16 16 16 15 15 15 15 15 15 15 15 15 15 15 15 14 14 14 14 14 13 13 13 13 13 13
14 14 14 15 15 15 15 15 15 15 15 15 15 16 15 15 15 15 15 15 15 15 15 15 15 15 15 15 15 15 15 14 14 14 14 14 14 13 13 13 13 13 13
14 14 14 14 14 14 14 15 15 15 15 15 15 15 15 15 15 15 15 15 15 15 15 15 15 15 15 15 15 15 15 14 14 14 14 14 14 13 13 13 13 13 13
13 13 13 14 14 14 14 14 14 14 15 15 15 15 15 15 15 15 15 15 15 15 15 15 15 15 15 15 15 15 15 15 14 14 14 14 14 14 14 14 14 13 13
12 13 13 13 13 13 14 14 14 14 14 14 14 14 14 15 15 15 15 15 15 15 15 15 14 14 14 14 15 15 15 15 14 14 14 14 14 14 14 14 14 14 13
12 12 12 12 13 13 13 13 13 14 14 14 14 14 14 14 14 14 14 15 15 15 14 14 14 14 14 14 14 14 15 14 14 14 14 14 14 14 14 14 14 14 14
11 12 12 12 12 12 13 13 13 13 13 13 14 14 14 14 14 14 14 14 14 14 14 14 14 14 14 14 14 14 14 14 14 14 14 14 14 14 14 14 14 14 14
11 11 11 12 12 12 12 12 12 12 13 13 13 13 13 13 13 14 14 14 14 14 14 14 14 14 14 14 14 14 14 14 14 14 14 14 14 14 14 14 14 14 14
10 10 10 11 11 11 12 12 12 12 12 12 13 13 13 13 13 13 13 13 14 14 14 14 14 14 14 14 14 14 14 14 14 14 14 14 14 14 14 14 14 14 14
9 10 10 10 10 11 11 11 11 12 12 12 12 12 12 12 13 13 13 13 13 13 13 13 13 13 13 13 13 13 13 13 13 13 13 13 13 13 14 14 13 13 14
9 9 9 10 10 10 10 10 11 11 11 11 11 12 12 12 12 12 12 13 13 13 13 13 13 13 13 13 13 13 13 13 13 13 13 13 13 13 13 13 13 13 13
9 9 9 9 9 9 10 10 10 10 11 11 11 11 11 11 11 12 12 12 12 12 12 12 13 13 13 13 13 13 13 13 13 13 13 13 13 13 13 13 13 13 13
8 8 8 9 9 9 9 9 9 10 10 10 10 10 10 11 11 11 11 11 11 12 12 12 12 12 12 12 12 12 12 12 12 12 12 12 12 13 13 13 13 13 13
8 8 8 8 8 8 8 8 8 9 9 9 9 10 10 10 10 10 11 11 11 11 11 11 12 12 12 12 11 11 11 12 12 12 12 12 12 12 12 12 12 13 13
7 7 7 7 7 8 8 8 8 8 9 9 9 9 9 9 9 10 10 10 10 10 10 11 11 11 11 11 11 11 11 11 11 12 12 12 12 12 12 12 12 12 13
6 6 7 7 7 7 8 8 8 8 8 8 8 8 9 9 9 9 9 9 9 10 10 10 10 10 10 10 10 10 11 11 10 11 11 11 11 12 12 12 12 12 12
6 6 6 7 7 7 7 7 7 7 7 8 8 8 8 8 8 8 8 9 9 9 9 9 9 9 10 10 10 10 10 10 10 10 10 11 11 11 12 12 12 12 12
6 6 6 6 7 7 7 7 7 7 7 7 7 7 8 8 8 8 8 8 8 8 8 8 9 9 9 9 9 9 9 9 9 9 9 9 10 11 11 11 11 11 11
Wind_Speed
2 2 4 6 7 8 8 9 9 9 9 9 9 9 9 9 9 10 10 10 10 10 10 10 10 10 10 10 11 12 12 13 13 13 12 12 12 12 12 12 11 11 12
3 2 4 5 6 7 8 8 8 8 8 8 8 8 8 8 8 9 9 9 9 9 9 9 9 9 10 10 10 11 12 12 13 12 12 12 12 11 11 10 10 10 11
1 1 4 5 6 6 7 7 7 7 8 8 7 7 7 7 7 8 8 8 8 8 8 9 9 9 10 10 10 10 11 11 11 10 9 9 9 10 10 10 10 10 10
3 2 3 4 5 5 6 6 6 6 7 7 7 7 6 7 7 7 7 8 8 8 8 9 9 9 9 9 9 9 9 9 8 6 6 6 7 9 9 9 9 9 10
6 5 3 3 3 4 4 4 5 6 6 6 7 7 7 7 7 7 7 8 8 8 8 9 10 10 10 9 8 8 8 7 6 6 6 6 6 8 8 8 8 9 9
6 7 5 4 2 2 2 3 4 5 6 6 7 7 8 8 8 8 8 8 8 8 9 10 11 11 10 9 8 7 6 5 6 6 7 7 7 8 8 8 8 8 8
6 8 7 6 4 2 1 2 3 4 5 6 7 8 8 9 9 9 9 9 9 9 10 11 12 12 11 10 9 8 6 5 6 7 8 8 8 9 9 8 7 7 7
7 8 8 7 6 5 4 3 3 4 5 6 8 9 9 10 10 10 10 11 11 11 11 12 12 13 12 11 10 8 6 6 5 6 9 10 10 10 9 9 8 7 7
9 9 9 8 7 6 6 5 5 5 6 6 8 9 10 10 11 11 11 12 12 13 13 13 13 14 14 13 11 10 8 7 6 6 8 9 11 11 10 9 8 7 7
8 8 9 10 9 8 8 7 7 7 8 8 9 9 10 11 11 12 12 13 14 14 15 15 15 15 15 14 13 11 9 7 7 7 8 10 13 12 11 10 9 8 8
9 7 8 9 10 10 8 8 8 8 8 9 9 9 10 9 10 11 12 14 15 16 16 16 16 16 16 15 14 13 10 7 7 8 9 12 14 13 13 12 11 10 9
8 8 6 7 8 9 9 9 8 7 8 8 8 8 9 9 9 10 12 15 16 17 18 18 18 17 15 13 13 13 10 9 8 9 11 15 16 15 14 14 13 12 11
6 7 7 7 8 7 7 7 6 7 6 7 7 8 7 7 7 8 7 10 13 14 14 15 15 13 12 11 11 11 11 10 10 11 13 16 18 17 16 16 15 14 13
7 7 7 7 7 7 7 6 6 5 5 5 7 8 5 4 4 5 5 7 8 9 9 10 9 11 12 13 12 11 11 10 10 12 14 18 19 19 18 17 16 15 15
6 8 8 8 7 7 6 5 5 5 5 6 7 7 6 4 4 4 4 6 7 8 8 7 8 9 9 10 11 11 10 12 12 13 14 19 21 21 20 19 18 17 17
7 8 8 8 7 7 5 4 5 6 7 7 6 7 7 5 4 4 5 5 6 8 9 8 8 8 8 8 9 10 11 12 12 13 15 17 22 23 22 21 20 19 18
7 8 8 8 7 7 7 6 5 6 6 5 6 7 7 5 5 4 4 5 6 8 8 7 8 7 7 8 9 10 9 10 11 13 15 15 17 22 23 22 21 21 20
7 8 8 8 8 7 6 6 6 6 6 5 6 6 6 6 5 3 4 5 5 6 5 6 7 7 7 8 8 8 8 8 10 11 13 14 15 17 20 23 23 22 21
7 7 8 8 8 8 7 6 5 5 5 5 5 5 6 5 5 3 4 4 4 4 4 6 6 6 6 7 7 7 7 7 8 9 9 12 15 16 17 21 24 24 23
7 7 8 8 8 8 6 5 5 4 4 4 5 5 6 5 5 3 3 3 3 3 4 4 5 5 5 6 6 6 6 6 6 7 8 9 11 14 16 17 18 20 23
8 8 8 9 8 7 5 4 4 4 4 4 4 6 6 6 5 3 3 3 3 3 4 4 4 5 5 3 3 4 4 6 7 7 7 7 8 11 13 15 15 15 16
7 8 8 8 8 7 5 4 3 3 3 3 4 6 7 6 5 4 3 3 3 2 2 2 2 3 3 4 3 2 3 4 6 8 7 8 9 8 9 13 14 15 15
7 8 8 8 8 7 6 4 4 3 2 3 4 4 6 7 6 5 4 3 3 2 2 2 3 4 4 3 4 3 3 4 2 3 6 8 8 8 8 8 11 14 15
6 7 7 8 8 7 6 5 5 4 3 3 4 4 5 6 7 7 5 4 3 3 3 3 2 2 3 3 2 3 3 2 3 3 3 6 8 9 9 9 9 12 15
5 6 6 7 7 7 6 6 5 4 3 3 4 4 5 5 7 7 6 4 4 3 3 3 3 2 2 3 2 2 3 3 3 3 5 4 5 7 8 9 8 8 12
5 5 6 6 7 7 7 7 6 4 4 5 5 5 5 4 5 7 7 6 5 4 3 3 2 2 2 2 2 1 1 2 2 3 5 5 5 5 7 8 8 8 9
Wind_Direction
288 252 154 131 127 128 129 133 134 134 133 130 129 129 129 128 127 128 129 131 132 134 133 130 125 122 119 117 115 112 109 107 103 99 96 94 94 98 98 93 88 85 88
247 206 150 137 133 131 133 135 142 143 143 140 138 139 140 142 141 141 143 144 144 142 142 139 134 130 127 123 122 119 116 112 108 102 96 93 94 97 100 98 98 96 92
31 149 136 134 134 135 140 143 150 155 156 155 153 151 153 153 157 158 159 160 159 157 156 149 140 138 134 132 130 128 124 119 116 110 104 102 102 103 104 105 103 99 96
38 92 112 127 131 137 145 154 162 167 170 172 171 168 168 170 172 175 177 177 176 172 166 157 150 146 143 142 141 139 136 131 125 120 119 119 116 115 112 112 110 103 101
37 44 66 100 123 135 146 162 171 180 183 186 186 186 186 187 190 193 191 188 184 177 171 164 159 156 155 156 156 152 147 141 132 132 141 143 134 126 119 117 115 108 106
33 34 44 55 68 110 156 177 190 193 194 195 199 201 200 201 204 204 200 195 189 181 176 171 169 168 169 170 170 167 160 149 136 142 153 156 152 139 131 127 123 118 113
31 30 34 33 30 24 303 227 221 214 211 208 210 214 214 214 214 211 207 203 197 192 187 184 181 180 180 182 183 182 175 158 145 153 161 166 166 155 147 142 138 134 127
31 22 24 21 15 8 346 298 259 243 234 226 223 224 224 225 222 218 214 210 205 202 198 196 193 190 188 190 193 193 185 165 150 160 172 178 176 168 160 155 152 151 149
26 19 11 9 0 350 337 316 292 269 253 244 238 234 231 229 229 226 221 217 213 209 205 201 199 196 194 196 199 201 197 184 164 167 181 187 182 175 168 166 165 163 161
22 15 7 1 357 346 330 314 302 285 266 257 251 245 239 235 234 232 227 223 218 213 209 205 203 201 200 201 204 207 208 199 185 185 193 194 189 182 176 177 178 179 176
10 3 3 358 354 347 332 321 306 291 276 268 261 254 247 242 239 236 231 226 221 216 212 210 208 206 204 205 207 210 212 207 203 200 197 199 197 193 186 185 188 192 190
354 349 354 349 344 342 337 327 310 297 285 273 266 259 250 244 240 239 235 229 225 221 215 213 212 209 205 206 211 212 215 214 215 212 207 205 203 201 195 193 195 199 200
335 339 340 337 334 333 331 325 315 304 292 278 268 262 254 245 242 240 234 232 229 224 219 217 213 209 203 203 207 211 217 217 220 220 216 211 208 207 203 201 202 205 207
335 331 332 330 330 327 325 320 311 307 298 285 273 265 255 245 238 233 229 227 222 218 213 211 208 206 205 206 209 214 220 220 222 223 222 217 212 212 210 208 207 210 213
334 329 327 325 325 324 324 320 319 308 298 287 279 270 258 243 241 233 230 224 221 217 211 210 208 207 209 211 215 217 222 223 223 222 222 219 215 214 214 212 212 214 216
334 327 325 324 323 323 319 312 310 311 307 300 291 280 267 255 244 239 236 227 224 218 213 212 212 213 216 215 219 222 224 224 224 224 223 222 219 216 215 215 216 217 219
331 327 327 323 328 325 317 312 317 314 314 309 302 291 282 270 256 246 240 236 231 225 219 214 212 211 219 221 224 226 226 225 223 222 222 220 220 219 217 217 219 221 223
336 334 330 332 331 326 320 315 318 319 320 315 307 302 298 287 272 253 244 243 236 224 220 218 213 213 221 224 225 227 227 224 224 222 221 220 219 220 221 221 221 223 226
341 336 334 331 332 327 320 319 317 320 323 327 324 323 316 310 296 274 252 252 241 224 224 226 219 212 220 226 228 227 225 225 227 226 223 222 221 220 219 222 223 224 225
349 343 340 338 338 331 326 326 326 330 328 341 337 330 322 317 312 298 274 273 255 234 227 229 231 221 219 222 232 234 232 229 227 225 226 226 225 225 223 223 224 228 227
358 353 347 345 342 344 336 331 326 328 331 335 338 338 334 334 330 324 302 289 272 247 238 230 234 231 227 208 217 243 249 238 234 230 223 222 225 226 225 225 225 224 228
353 350 347 344 342 342 333 315 291 288 300 316 344 351 353 356 355 352 337 315 300 282 265 256 243 233 228 200 198 207 248 254 239 232 224 226 228 224 225 227 225 224 224
350 346 344 339 339 338 336 337 339 342 339 350 354 351 354 359 3 9 2 348 334 312 283 271 252 236 237 221 202 194 210 235 265 253 232 231 230 228 230 229 229 230 227
341 340 340 341 343 344 351 2 6 11 353 336 333 337 348 1 7 7 5 3 356 354 344 318 293 259 243 244 236 230 225 207 224 264 258 236 232 232 231 231 230 232 231
337 340 338 342 349 352 1 11 14 11 351 342 347 353 360 4 7 4 2 5 3 359 354 346 334 320 279 254 243 234 243 251 236 242 266 261 247 238 235 234 232 234 235
344 347 344 351 357 0 8 15 20 14 6 9 5 2 3 2 3 6 5 5 359 356 352 345 342 345 330 305 283 261 242 246 244 245 257 269 266 257 244 238 233 232 234
Height
1529 1528 1528 1528 1529 1529 1530 1530 1531 1532 1533 1534 1534 1535 1535 1536 1536 1536 1537 1537 1537 1537 1537 1537 1537 1537 1538 1538 1538 1539 1539 1539 1539 1540 1540 1540 1540 1540 1540 1540 1540 1540 1539
1529 1528 1528 1528 1529 1529 1530 1531 1531 1532 1533 1534 1534 1535 1535 1536 1536 1536 1537 1537 1537 1537 1537 1537 1538 1538 1538 1539 1539 1539 1540 1540 1540 1540 1541 1541 1541 1541 1541 1541 1541 1540 1540
1528 1528 1528 1528 1529 1529 1530 1531 1531 1532 1533 1534 1534 1535 1535 1536 1536 1536 1536 1537 1537 1537 1537 1538 1538 1539 1539 1539 1540 1540 1540 1541 1541 1541 1541 1542 1542 1542 1541 1541 1541 1541 1541
1528 1528 1528 1528 1529 1529 1530 1530 1531 1532 1532 1533 1534 1534 1535 1535 1536 1536 1536 1536 1537 1537 1537 1538 1538 1539 1539 1540 1540 1540 1541 1541 1541 1541 1542 1542 1542 1542 1542 1542 1542 1542 1542
1528 1528 1528 1528 1528 1529 1530 1530 1531 1531 1532 1532 1533 1534 1534 1535 1535 1535 1536 1536 1536 1536 1537 1538 1538 1539 1539 1540 1540 1541 1541 1541 1541 1541 1542 1542 1542 1542 1542 1542 1542 1542 1542
1527 1527 1527 1528 1528 1528 1529 1529 1530 1530 1531 1532 1532 1533 1533 1534 1534 1534 1535 1535 1536 1536 1536 1537 1538 1538 1539 1540 1540 1541 1541 1541 1541 1541 1542 1542 1542 1542 1542 1542 1542 1542 1542
1527 1527 1527 1527 1527 1527 1528 1528 1529 1529 1530 1530 1531 1531 1532 1532 1533 1533 1534 1534 1535 1535 1535 1536 1537 1537 1538 1539 1540 1540 1540 1541 1541 1541 1541 1542 1542 1542 1542 1542 1542 1542 1542
1526 1526 1526 1526 1526 1526 1526 1526 1527 1527 1528 1529 1529 1530 1530 1531 1531 1532 1532 1533 1533 1534 1534 1535 1536 1536 1537 1538 1539 1539 1540 1540 1540 1541 1541 1541 1541 1542 1542 1542 1542 1542 1542
1525 1525 1524 1524 1524 1524 1524 1525 1525 1525 1526 1526 1527 1528 1528 1529 1529 1530 1530 1531 1531 1532 1533 1533 1534 1535 1536 1537 1538 1538 1539 1539 1539 1540 1540 1541 1541 1541 1541 1541 1541 1541 1542
1524 1523 1523 1523 1523 1522 1522 1523 1523 1523 1523 1524 1525 1525 1526 1526 1527 1527 1528 1529 1529 1530 1531 1531 1532 1533 1534 1535 1536 1537 1537 1538 1538 1539 1539 1540 1540 1540 1541 1541 1541 1541 1541
1522 1522 1521 1521 1521 1520 1520 1520 1520 1521 1521 1521 1522 1522 1523 1523 1524 1524 1525 1526 1526 1527 1528 1529 1530 1531 1532 1533 1534 1535 1536 1536 1537 1537 1538 1538 1539 1539 1539 1540 1540 1540 1540
1520 1520 1519 1519 1518 1518 1518 1517 1517 1518 1518 1518 1518 1519 1520 1520 1521 1521 1522 1523 1523 1524 1525 1526 1527 1528 1529 1530 1531 1532 1533 1534 1535 1535 1536 1537 1537 1538 1538 1538 1538 1539 1539
1518 1518 1517 1516 1516 1515 1515 1514 1514 1514 1514 1515 1515 1516 1516 1516 1517 1518 1518 1519 1520 1521 1521 1522 1523 1524 1525 1527 1528 1529 1530 1531 1532 1533 1534 1535 1535 1536 1536 1536 1537 1537 1537
1517 1516 1515 1514 1513 1512 1512 1511 1511 1511 1511 1511 1511 1512 1512 1512 1513 1514 1514 1515 1516 1517 1517 1519 1519 1521 1522 1523 1524 1526 1527 1528 1529 1530 1531 1532 1533 1533 1534 1534 1535 1535 1535
1514 1513 1512 1511 1510 1509 1508 1508 1507 1507 1507 1507 1507 1508 1508 1508 1509 1509 1510 1511 1512 1513 1513 1514 1515 1516 1518 1519 1520 1521 1522 1524 1525 1526 1527 1529 1530 1530 1531 1531 1532 1532 1533
1512 1510 1509 1508 1507 1506 1505 1504 1503 1503 1503 1503 1503 1503 1504 1504 1505 1505 1506 1507 1507 1508 1509 1510 1511 1512 1513 1514 1515 1517 1518 1519 1521 1522 1523 1525 1526 1527 1528 1528 1529 1529 1530
1510 1508 1506 1505 1503 1502 1501 1500 1500 1499 1499 1499 1499 1499 1500 1500 1500 1501 1501 1502 1503 1504 1505 1505 1506 1507 1508 1509 1510 1512 1513 1514 1515 1517 1519 1520 1521 1523 1524 1524 1525 1526 1527
1507 1505 1504 1502 1500 1499 1498 1497 1496 1495 1495 1495 1495 1495 1495 1496 1496 1497 1497 1497 1498 1499 1500 1501 1501 1502 1503 1504 1505 1506 1507 1509 1510 1511 1513 1514 1516 1517 1519 1520 1521 1522 1523
1505 1503 1501 1499 1497 1496 1494 1493 1492 1492 1491 1491 1491 1491 1491 1491 1492 1492 1492 1493 1494 1494 1495 1496 1496 1497 1498 1499 1500 1501 1502 1502 1504 1506 1507 1508 1510 1512 1513 1515 1516 1517 1518
1503 1501 1499 1497 1495 1493 1492 1490 1489 1488 1488 1487 1487 1487 1487 1487 1487 1488 1488 1488 1489 1489 1490 1490 1491 1492 1493 1494 1495 1495 1496 1497 1498 1500 1501 1502 1504 1505 1507 1509 1510 1511 1513
1501 1499 1497 1495 1493 1491 1489 1487 1486 1485 1484 1484 1484 1483 1483 1483 1483 1483 1483 1484 1484 1484 1485 1486 1486 1487 1488 1490 1491 1490 1491 1492 1493 1494 1496 1497 1498 1499 1501 1502 1504 1505 1507
1499 1497 1495 1493 1491 1489 1487 1486 1484 1483 1482 1482 1481 1480 1480 1480 1479 1479 1479 1479 1480 1480 1480 1481 1481 1481 1483 1485 1486 1486 1486 1487 1486 1488 1489 1490 1491 1493 1494 1496 1497 1499 1500
1497 1495 1493 1491 1489 1487 1486 1484 1483 1481 1480 1479 1478 1477 1477 1477 1476 1476 1475 1475 1475 1475 1475 1476 1477 1478 1478 1479 1481 1482 1482 1481 1481 1482 1483 1484 1485 1486 1487 1488 1490 1492 1494
1496 1494 1492 1490 1488 1486 1484 1482 1481 1479 1478 1477 1476 1475 1474 1474 1473 1473 1472 1472 1472 1471 1471 1472 1473 1474 1474 1475 1476 1477 1478 1478 1478 1476 1477 1478 1479 1480 1481 1482 1483 1484 1486
1495 1493 1491 1489 1487 1485 1483 1481 1480 1478 1477 1476 1475 1474 1473 1472 1471 1470 1470 1469 1468 1468 1468 1468 1469 1469 1470 1471 1471 1471 1472 1473 1473 1473 1472 1472 1472 1473 1474 1475 1476 1477 1478
1494 1492 1490 1488 1486 1484 1482 1480 1479 1478 1476 1475 1473 1472 1471 1470 1469 1468 1467 1466 1465 1465 1465 1465 1465 1465 1466 1466 1467 1467 1467 1468 1467 1468 1467 1466 1466 1466 1467 1468 1469 1470 1471